Location: Del Oro Observatory
(38.3044°N, 104.8119°W)
Time: 00:02:47
(UTC-06:00)

Iridium 35 - Visible Passes

Search period start: 24 May 2016 00:00
Search period end: 03 June 2016 00:00
Orbit: 776 x 779 km, 86.4° (Epoch: 23 May)

Date Brightness Start Highest point End Pass type
(mag) Time Alt. Az. Time Alt. Az. Time Alt. Az.
24 May 6.8 03:48:59 10° NNE 03:53:32 30° E 03:58:04 10° SE visible
25 May 7.6 03:16:32 10° NE 03:19:45 16° ENE 03:22:56 10° ESE visible
25 May 5.2 04:55:43 10° NNW 05:00:47 53° W 05:05:50 10° SSW visible
26 May 5.1 04:22:05 10° N 04:27:19 82° E 04:32:32 10° S visible
27 May 6.1 03:48:46 10° NNE 03:53:45 43° E 03:58:41 10° SSE visible
28 May 7.1 03:15:53 10° NNE 03:20:02 23° E 03:24:09 10° SE visible
28 May 5.7 04:56:04 10° NNW 05:00:48 36° W 05:05:31 10° SSW visible
29 May 7.7 02:44:00 10° NE 02:46:11 12° ENE 02:48:21 10° E visible
29 May 5.0 04:22:13 10° N 04:27:25 68° W 04:32:35 10° S visible
30 May 5.4 03:48:43 10° N 03:53:54 64° E 03:59:04 10° SSE visible
31 May 6.5 03:15:33 10° NNE 03:20:16 34° E 03:24:58 10° SE visible
31 May 6.2 04:56:36 10° NNW 05:00:47 25° W 05:04:56 10° SW visible
01 Jun 7.4 02:42:55 10° NNE 02:46:31 18° ENE 02:50:05 10° ESE visible
01 Jun 5.4 04:22:29 10° NNW 04:27:27 46° W 04:32:08 11° SSW visible
02 Jun 5.0 03:48:46 10° N 03:54:01 87° W 03:58:15 16° S visible
